Stations météo

Publicité
Auch, France (7622): Température de l'air & dewpoint: 20.03.2017 09:00:00 - 26.03.2017 09:00:00 (CEST)Auch, France (7622): Température de l'air 5cm: 20.03.2017 09:00:00 - 26.03.2017 09:00:00 (CEST)Auch, France (7622): Température de l'air -20cm & Température de l'air -100cm: 20.03.2017 09:00:00 - 26.03.2017 09:00:00 (CEST)Auch, France (7622): Vitesse du vent & gusts: 20.03.2017 09:00:00 - 26.03.2017 09:00:00 (CEST)Auch, France (7622): Direction du vent: 20.03.2017 09:00:00 - 26.03.2017 09:00:00 (CEST)Auch, France (7622): reduced air pressure: 20.03.2017 09:00:00 - 26.03.2017 09:00:00 (CEST)Auch, France (7622): visibility: 20.03.2017 09:00:00 - 26.03.2017 09:00:00 (CEST)Auch, France (7622): Ensoleillement: 20.03.2017 09:00:00 - 26.03.2017 09:00:00 (CEST)Auch, France (7622): Quantités de précipitations: 20.03.2017 09:00:00 - 26.03.2017 09:00:00 (CEST)
Date & Time tt [°C] td [°C] tt 5cm [°C] tt -20cm [°C] tt -100cm [°C] ff [km/h] ff [knt] fx [km/h] fx [knt] dd ppp [hPa] vv [km] sd [min] rr [mm]
26.03.2017 09:00:00 1,2 0,9 -2,4 10,2 11,5 0 0 4 2 N 1017,2 20 31 0,0
26.03.2017 08:00:00 0,3 0,0 -2,9 10,4 11,5 0 0 5 3 N 1016,8 13 0 0,0
26.03.2017 07:00:00 0,6 0,3 -3,1 10,5 11,5 0 0 5 3 N 1016,4 20 0 0,0
26.03.2017 06:00:00 0,7 0,3 -2,3 10,7 11,5 0 0 6 3 N 1016,2 11 0 0,0
26.03.2017 05:00:00 0,9 0,5 -1,6 10,8 11,5 0 0 9 5 N 1016,2 12 0 0,0
26.03.2017 04:00:00 1,3 1,0 -1,8 10,9 11,5 0 0 5 3 N 1016,0 3,2 0 0,0
26.03.2017 03:00:00 1,6 1,2 -1,6 11,0 11,5 0 0 4 2 N 1016,5 3,5 0 0,0
26.03.2017 02:00:00 2,0 1,6 -1,1 11,2 11,5 2 1 4 2 SW 1016,5 4,9 0 0,0
26.03.2017 01:00:00 3,0 2,6 -0,9 11,3 11,5 0 0 4 2 N 1016,2 13 0 0,0
26.03.2017 00:00:00 3,9 3,3 0,8 11,3 11,5 2 1 6 3 S 1015,8 19 0 0,0
25.03.2017 23:00:00 5,0 4,4 1,4 11,4 11,5 0 0 7 4 N 1015,5 20 0 0,0
25.03.2017 22:00:00 6,0 5,0 2,7 11,4 11,5 3 2 4 2 S 1014,6 20 0 0,0
25.03.2017 21:00:00 7,7 5,7 3,6 11,3 11,5 2 1 13 7 NNE 1013,2 20 0 0,0
25.03.2017 20:00:00 10,1 6,8 6,2 11,2 11,5 3 2 8 4 N 1012,0 19 15 0,0
25.03.2017 19:00:00 13,2 5,6 13,9 11,1 11,5 4 2 11 6 NNW 1011,0 20 58 0,0
25.03.2017 18:00:00 12,5 6,1 13,2 11,0 11,5 5 3 21 11 SW 1011,1 20 6 0,0
25.03.2017 17:00:00 12,1 6,6 13,2 10,9 11,5 15 8 29 16 SSE 1011,2 20 22 0,0
25.03.2017 16:00:00 11,1 7,4 10,5 10,8 11,5 13 7 25 13 SSE 1010,8 20 23 0,0
25.03.2017 15:00:00 9,5 7,9 8,4 10,7 11,5 18 10 32 18 S 1010,1 20 0 0,0
25.03.2017 14:00:00 9,9 8,7 10,7 10,7 11,5 7 4 13 7 S 1009,4 20 0 0,2
25.03.2017 13:00:00 8,8 8,0 8,3 10,7 11,5 4 2 18 10 SW 1009,2 16 0 0,8
25.03.2017 12:00:00 7,8 6,7 7,8 10,7 11,5 5 3 13 7 WSW 1009,7 10 0 0,4
25.03.2017 11:00:00 7,5 6,6 7,2 10,8 11,5 3 2 8 4 W 1009,9 20 0 0,0
25.03.2017 10:00:00 6,7 5,8 6,4 10,8 11,5 6 3 9 5 SW 1010,8 20 0 0,6
25.03.2017 09:00:00 6,3 5,7 6,0 10,8 11,5 5 3 11 6 SSW 1010,7 20 0 0,0
25.03.2017 08:00:00 6,1 5,7 6,0 10,9 11,5 11 6 16 8 S 1011,5 6 0 0,8
25.03.2017 07:00:00 6,0 5,4 5,7 11,0 11,5 6 3 10 5 NW 1011,2 14 0 0,2
25.03.2017 06:00:00 5,8 5,2 5,8 11,0 11,5 4 2 10 6 WSW 1012,3 4,5 0 0,4
25.03.2017 05:00:00 6,0 5,3 5,8 11,1 11,5 3 1 7 4 WSW 1013,3 6 0 0,2
25.03.2017 04:00:00 6,1 5,1 6,0 11,1 11,5 4 2 6 4 NNW 1014,7 3,9 0 0,8
25.03.2017 03:00:00 6,4 5,5 6,1 11,2 11,5 2 1 9 5 S 1015,7 12 0 0,2
25.03.2017 02:00:00 6,5 5,8 6,1 11,2 11,5 5 3 13 7 S 1016,3 19 0 0,2
25.03.2017 01:00:00 6,6 5,5 6,1 11,3 11,5 10 5 18 10 S 1017,2 18 0 0,2
25.03.2017 00:00:00 7,0 6,3 6,7 11,3 11,5 9 5 13 7 S 1017,4 15 0 0,4
24.03.2017 23:00:00 7,1 6,4 6,7 11,3 11,5 8 4 11 6 S 1017,7 6 0 1,6
24.03.2017 22:00:00 7,4 6,3 6,9 11,3 11,5 2 1 14 8 S 1018,6 7 0 1,2
24.03.2017 21:00:00 7,9 6,4 7,2 11,3 11,5 8 4 17 9 SE 1018,7 16 0 0,4
24.03.2017 20:00:00 8,3 5,9 7,4 11,2 11,5 8 4 29 15 ENE 1017,9 20 0 0,2
24.03.2017 19:00:00 11,3 6,2 11,1 11,1 11,5 4 2 14 7 E 1016,9 20 0 0,0
24.03.2017 18:00:00 11,6 6,9 11,9 11,0 11,5 7 4 14 7 ENE 1016,6 20 0 0,0
24.03.2017 17:00:00 11,7 6,4 12,6 10,9 11,5 6 4 16 9 ESE 1017,0 20 0 0,0
24.03.2017 16:00:00 11,8 6,1 13,2 10,7 11,5 8 4 16 9 ENE 1017,0 20 0 0,0
24.03.2017 15:00:00 11,5 5,8 14,1 10,6 11,5 4 2 13 7 N 1016,7 20 0 0,0
24.03.2017 14:00:00 10,9 5,6 12,7 10,6 11,5 3 2 8 4 W 1016,6 19 0 0,0
24.03.2017 13:00:00 10,4 5,8 13,1 10,6 11,5 4 2 11 6 SE 1017,0 20 3 0,0
24.03.2017 12:00:00 9,0 5,9 10,2 10,6 11,5 2 1 6 3 N 1017,1 20 0 0,0
24.03.2017 11:00:00 7,3 4,6 7,8 10,7 11,5 0 0 7 4 N 1016,8 20 34 0,0
24.03.2017 10:00:00 5,1 4,2 3,5 10,8 11,5 0 0 5 3 N 1016,5 19 60 0,0
24.03.2017 09:00:00 2,0 1,9 -0,9 11,0 11,5 0 0 5 3 N 1016,2 19 15 0,0
24.03.2017 08:00:00 0,8 0,4 -1,2 11,1 11,5 0 0 3 2 N 1015,6 13 0 0,0
24.03.2017 07:00:00 0,4 0,0 -2,0 11,3 11,5 0 0 3 1 N 1015,2 14 0 0,0
24.03.2017 06:00:00 0,7 0,1 -2,6 11,4 11,5 0 0 4 2 N 1015,3 19 0 0,0
24.03.2017 05:00:00 1,4 0,8 -2,3 11,5 11,5 0 0 0 0 N 1014,7 20 0 0,0
24.03.2017 04:00:00 2,3 1,6 -0,9 11,7 11,5 0 0 2 1 N 1015,1 20 0 0,0
24.03.2017 03:00:00 3,6 2,6 0,2 11,8 11,5 0 0 4 2 N 1015,0 20 0 0,0
24.03.2017 02:00:00 4,5 3,3 2,1 11,9 11,5 0 0 5 3 N 1014,7 20 0 0,0
24.03.2017 01:00:00 5,0 3,2 1,9 12,0 11,5 0 0 9 5 N 1014,4 20 0 0,0
24.03.2017 00:00:00 5,9 3,6 3,1 12,1 11,5 6 3 16 8 N 1014,2 20 0 0,0
23.03.2017 23:00:00 7,1 3,7 6,1 12,2 11,5 6 3 18 10 ENE 1013,6 20 0 0,0
23.03.2017 22:00:00 7,7 4,3 3,3 12,2 11,5 5 3 16 9 E 1013,3 20 0 0,0
23.03.2017 21:00:00 7,9 3,0 3,0 12,1 11,5 2 1 11 6 ENE 1012,3 20 0 0,0
23.03.2017 20:00:00 10,8 2,9 10,3 12,0 11,5 7 4 16 9 E 1011,1 20 37 0,0
23.03.2017 19:00:00 11,9 2,6 12,2 11,9 11,5 11 6 17 9 NE 1010,4 20 52 0,0
23.03.2017 18:00:00 11,9 1,2 13,0 11,7 11,5 6 3 16 9 ENE 1009,9 20 46 0,0
23.03.2017 17:00:00 12,8 2,6 12,6 11,5 11,5 4 2 16 9 ENE 1009,9 20 38 0,0
23.03.2017 16:00:00 11,1 1,9 13,5 11,3 11,5 9 5 15 8 N 1009,9 20 20 0,0
23.03.2017 15:00:00 11,3 1,5 12,8 11,1 11,5 4 2 12 6 N 1010,1 16 30 0,2
23.03.2017 14:00:00 10,4 3,2 13,2 11,0 11,5 6 3 13 7 NNW 1010,5 20 48 0,0
23.03.2017 13:00:00 9,1 3,7 11,0 11,0 11,5 5 3 13 7 S 1010,9 20 19 0,0
23.03.2017 12:00:00 8,0 4,6 9,4 11,0 11,5 4 2 15 8 SSW 1010,8 20 7 0,0
23.03.2017 11:00:00 6,8 4,3 6,9 11,1 11,5 3 2 10 6 SW 1010,8 20 0 0,0
23.03.2017 10:00:00 6,0 4,5 5,4 11,2 11,5 4 2 11 6 SW 1010,4 20 0 0,0
23.03.2017 09:00:00 5,6 4,6 5,2 11,3 11,5 6 3 15 8 SW 1009,8 14 0 0,8
23.03.2017 08:00:00 5,6 4,7 5,1 11,3 11,5 2 1 8 5 S 1009,1 15 0 1,0
23.03.2017 07:00:00 5,6 4,4 5,2 11,4 11,5 8 4 12 6 SSE 1009,0 20 0 0,4
23.03.2017 06:00:00 5,5 4,8 5,2 11,5 11,5 6 3 9 5 S 1008,8 20 0 1,4
23.03.2017 05:00:00 5,7 5,0 5,3 11,6 11,5 4 2 9 5 SSW 1008,8 16 0 1,0
23.03.2017 04:00:00 5,7 4,8 5,3 11,7 11,5 3 2 5 3 SE 1009,0 14 0 0,2
23.03.2017 03:00:00 5,6 4,7 5,3 11,8 11,5 4 2 6 4 S 1009,7 20 0 0,2
23.03.2017 02:00:00 5,7 4,8 5,2 11,9 11,5 2 1 5 3 NE 1009,6 20 0 0,0
23.03.2017 01:00:00 5,6 4,4 5,2 12,0 11,5 4 2 15 8 NNW 1010,0 19 0 1,6
23.03.2017 00:00:00 6,2 4,4 5,4 12,1 11,5 6 3 26 14 WNW 1010,6 13 0 0,6
22.03.2017 23:00:00 6,3 4,8 4,2 12,2 11,5 16 9 38 21 NW 1010,1 20 0 6,1
22.03.2017 22:00:00 7,4 5,2 6,6 12,2 11,5 20 11 39 21 W 1010,1 20 0 0,2
22.03.2017 21:00:00 10,9 5,8 8,2 12,1 11,5 0 0 7 4 N 1006,9 20 0 0,0
22.03.2017 20:00:00 12,9 4,8 11,3 12,0 11,5 3 2 19 11 NE 1006,8 20 5 0,0
22.03.2017 19:00:00 14,6 4,0 17,0 11,8 11,5 10 6 21 11 ENE 1006,5 20 60 0,0
22.03.2017 18:00:00 14,6 4,6 14,8 11,7 11,5 9 5 14 8 NNW 1007,8 20 5 0,0
22.03.2017 17:00:00 16,0 3,4 15,9 11,4 11,5 8 4 28 15 NW 1008,4 20 20 0,0
22.03.2017 16:00:00 15,0 4,7 17,0 11,2 11,5 11 6 26 14 WNW 1009,0 20 11 0,0
22.03.2017 15:00:00 15,0 5,5 17,7 11,0 11,5 9 5 19 10 NNW 1009,8 20 26 0,0
22.03.2017 14:00:00 14,6 3,4 17,1 10,9 11,5 2 1 15 8 W 1010,4 20 45 0,0
22.03.2017 13:00:00 13,0 7,7 14,6 10,8 11,5 7 4 21 11 SSE 1011,0 20 24 0,0
22.03.2017 12:00:00 10,9 6,8 10,3 10,8 11,5 13 7 21 11 SSE 1011,5 20 42 0,0
22.03.2017 11:00:00 8,1 6,1 8,8 10,9 11,5 9 5 18 10 SE 1012,1 20 13 0,0
22.03.2017 10:00:00 7,5 5,8 7,2 11,0 11,5 11 6 24 13 SSE 1012,5 20 56 0,0
22.03.2017 09:00:00 5,2 5,1 3,7 11,1 11,5 3 2 5 3 SSW 1012,8 0,7 42 0,0
22.03.2017 08:00:00 4,1 4,0 1,2 11,2 11,5 3 1 6 4 SSW 1013,2 0,6 0 0,0
22.03.2017 07:00:00 2,8 2,7 -0,2 11,4 11,5 3 2 5 3 SSW 1014,1 0,5 0 0,0
22.03.2017 06:00:00 2,6 2,3 -0,5 11,5 11,5 0 0 3 2 N 1015,1 2,0 0 0,0
22.03.2017 05:00:00 2,7 2,3 -0,1 11,6 11,5 2 1 3 2 S 1015,8 0,3 0 0,0
22.03.2017 04:00:00 4,1 3,7 0,9 11,7 11,5 0 0 2 1 N 1016,5 0,5 0 0,0
22.03.2017 03:00:00 4,5 4,1 1,2 11,8 11,5 0 0 4 2 N 1017,1 7 0 0,0
22.03.2017 02:00:00 5,0 4,4 2,1 11,9 11,5 0 0 2 1 N 1017,6 13 0 0,0
22.03.2017 01:00:00 5,8 5,1 3,1 12,0 11,5 0 0 4 2 N 1017,9 20 0 0,0
22.03.2017 00:00:00 6,4 5,3 3,3 12,0 11,4 3 2 6 3 S 1018,6 20 0 0,0
21.03.2017 23:00:00 7,4 6,0 5,3 12,1 11,5 4 2 9 5 SW 1018,8 20 0 0,0
21.03.2017 22:00:00 8,0 5,6 7,1 12,1 11,5 0 0 6 3 N 1018,9 20 0 0,0
21.03.2017 21:00:00 8,2 5,7 7,7 12,1 11,5 4 2 16 8 NW 1018,8 20 0 0,0
21.03.2017 20:00:00 8,7 6,5 8,3 12,1 11,4 9 5 29 16 NW 1018,6 20 4 0,0
21.03.2017 19:00:00 9,2 7,1 8,8 12,1 11,4 11 6 31 17 NW 1017,9 20 0 0,0
21.03.2017 18:00:00 9,2 7,5 8,9 12,0 11,4 17 9 35 19 NNW 1017,0 20 0 0,2
21.03.2017 17:00:00 9,7 8,0 9,5 11,9 11,4 23 12 40 21 NW 1016,4 4,7 0 0,4
21.03.2017 16:00:00 13,4 7,6 13,7 11,9 11,4 12 6 22 12 W 1015,6 17 0 0,0
21.03.2017 15:00:00 13,2 7,2 14,1 11,8 11,5 10 5 22 12 SW 1015,9 20 0 0,0
21.03.2017 14:00:00 13,2 7,0 14,3 11,7 11,4 12 6 23 13 SW 1016,2 20 1 0,0
21.03.2017 13:00:00 12,5 7,0 13,4 11,7 11,4 11 6 19 11 WSW 1016,8 20 0 0,0
21.03.2017 12:00:00 11,9 7,2 12,6 11,7 11,4 13 7 20 11 W 1017,0 20 0 0,0
21.03.2017 11:00:00 11,0 6,9 11,0 11,7 11,4 5 3 10 6 SW 1016,8 20 0 0,0
21.03.2017 10:00:00 10,3 7,4 10,3 11,8 11,4 6 3 11 6 SSW 1016,8 20 0 0,0
21.03.2017 09:00:00 9,5 7,9 8,4 11,8 11,4 6 3 8 4 S 1016,9 20 0 0,0
21.03.2017 08:00:00 8,7 7,6 8,4 11,9 11,4 4 2 9 5 S 1016,9 20 0 0,0
21.03.2017 07:00:00 8,8 7,6 8,5 11,9 11,4 6 3 15 8 S 1017,0 20 0 0,0
21.03.2017 06:00:00 8,8 7,6 7,4 12,0 11,4 11 6 14 7 S 1017,1 20 0 0,0
21.03.2017 05:00:00 9,1 6,9 7,7 12,0 11,4 0 0 7 4 N 1017,6 20 0 0,0
21.03.2017 04:00:00 9,2 6,8 8,6 12,1 11,4 4 2 14 8 W 1018,3 20 0 0,0
21.03.2017 03:00:00 9,1 7,4 8,7 12,1 11,4 2 1 11 6 NW 1018,7 20 0 0,0
21.03.2017 02:00:00 9,3 7,6 8,8 12,2 11,4 7 4 13 7 NW 1018,9 20 0 0,0
21.03.2017 01:00:00 9,3 7,9 8,8 12,2 11,4 8 4 21 12 WNW 1019,1 12 0 0,0
21.03.2017 00:00:00 10,3 8,4 9,6 12,2 11,4 4 2 18 10 W 1019,2 14 0 0,0
20.03.2017 23:00:00 11,4 7,3 10,9 12,2 11,4 7 4 16 9 W 1018,8 15 0 0,0
20.03.2017 22:00:00 11,5 7,6 11,1 12,2 11,4 8 4 16 8 W 1018,7 17 0 0,0
20.03.2017 21:00:00 12,0 7,9 11,6 12,2 11,4 8 4 16 9 W 1018,2 20 0 0,0
20.03.2017 20:00:00 12,3 7,8 11,7 12,2 11,4 5 3 16 9 W 1017,7 20 0 0,0
20.03.2017 19:00:00 12,5 7,8 12,2 12,1 11,4 8 4 16 8 WNW 1017,4 20 0 0,0
20.03.2017 18:00:00 12,8 7,9 12,8 12,0 11,3 9 5 14 8 W 1016,9 20 0 0,0
20.03.2017 17:00:00 12,9 7,8 13,4 11,9 11,4 6 3 13 7 W 1016,9 20 0 0,0
20.03.2017 16:00:00 12,9 8,6 13,9 11,8 11,4 3 2 8 4 WNW 1016,9 20 0 0,0
20.03.2017 15:00:00 12,9 8,6 15,2 11,8 11,4 0 0 7 4 N 1017,2 20 0 0,0
20.03.2017 14:00:00 12,2 8,7 13,4 11,7 11,4 3 2 9 5 SSW 1017,4 17 0 0,0
20.03.2017 13:00:00 11,0 8,4 12,2 11,7 11,4 3 2 7 4 SSW 1017,9 16 0 0,0
20.03.2017 12:00:00 10,6 8,4 11,0 11,7 11,4 2 1 8 4 SSE 1018,1 16 0 0,0
20.03.2017 11:00:00 9,7 8,1 9,9 11,8 11,4 0 0 6 4 N 1018,3 13 0 0,0
20.03.2017 10:00:00 9,3 8,1 9,6 11,8 11,4 3 2 8 5 NW 1018,3 11 0 0,0
20.03.2017 09:00:00 - - - - - - - - - - - - - -

tt = Température de l'air
td = dewpoint
tt 5cm = Température de l'air 5cm
tt -20cm = Température de l'air -20cm
tt -100cm = Température de l'air -100cm
ff = Vitesse du vent
fx = gusts
dd = Direction du vent
ppp = reduced air pressure
vv = visibility
sd = Ensoleillement
rr = Quantités de précipitations

stations d'obs. à proximité